Flag for Canada

Past Weather in Vaughan, Ontario, Canada — Yesterday and Last 2 Weeks

Now
72 °F

Haze.


Feels Like: 75 °F
Forecast: 83 / 69 °F
Wind: 14 mph from Northeast

Location: Toronto Island Airport
Current Time: Aug 14, 2020 at 7:07:56 am
Latest Report: Aug 14, 2020 at 6:11 am
Visibility: 2 mi
Pressure30.09 "Hg
Humidity: 69%
Dew Point: 61 °F
Location of VaughanLocation

Past Weather in Vaughan — Graph

°F

Vaughan Temperature Yesterday

Maximum temperature yesterday: 82 °F (at 2:00 pm)
Minimum temperature yesterday: 66 °F (at 2:34 am)
Average temperature yesterday: 73 °F

High & Low Weather Summary for the Past Weeks

 TemperatureHumidityPressure
High84 °F (Aug 11, 5:00 pm)100% (Aug 2, 6:00 am)30.17 "Hg (Aug 2, 6:00 am)
Low57 °F (Aug 6, 3:00 am)35% (Aug 12, 5:00 pm)29.61 "Hg (Aug 2, 3:14 pm)
Average71 °F77%29.95 "Hg
* Reported Jul 30 5:00 am — Aug 14 5:39 am, Vaughan. Weather by CustomWeather, © 2020

Note: Actual official high and low records may vary slightly from our data, if they occured in-between our weather recording intervals... More about our weather records

Vaughan Weather History for the Previous 24 Hours

Scroll right to see more
 ConditionsComfort  
Time TempWeatherWind HumidityBarometerVisibility
5:39 am
Fri, Aug 14
73 °FHaze.12 mph65%30.09 "Hg2 mi
5:00 am73 °FOvercast.13 mph65%30.08 "Hg2 mi
4:57 am73 °FOvercast.12 mph65%30.08 "Hg2 mi
4:38 am73 °FPassing clouds.15 mph65%30.08 "Hg2 mi
4:00 am75 °FPassing clouds.13 mph57%30.09 "Hg3 mi
3:00 am75 °FClear.12 mph57%30.09 "Hg3 mi
2:54 am75 °FClear.10 mph54%30.09 "Hg3 mi
2:00 am75 °FClear.10 mph54%30.09 "Hg8 mi
1:00 am77 °FClear.12 mph51%30.09 "Hg8 mi
12:00 am77 °FClear.8 mph51%30.09 "Hg8 mi
11:00 pm
Thu, Aug 13
75 °FClear.8 mph57%30.10 "Hg9 mi
10:00 pm73 °FClear.7 mph65%30.10 "Hg9 mi
9:36 pm75 °FClear.7 mph65%30.11 "Hg3 mi
9:00 pm73 °FClear.7 mph74%30.10 "Hg7 mi
8:58 pm73 °FClear.7 mph69%30.10 "Hg7 mi
8:00 pm79 °FSunny.6 mph51%30.08 "Hg9 mi
7:00 pm77 °FSunny.5 mph65%30.07 "Hg9 mi
6:00 pm77 °FSunny.6 mph69%30.09 "Hg9 mi
5:00 pm79 °FSunny.7 mph65%30.09 "Hg9 mi
4:07 pm81 °FSunny.6 mph54%30.10 "Hg7 mi
3:38 pm81 °FSunny.6 mph54%30.11 "Hg6 mi
3:00 pm82 °FSunny.8 mph48%30.12 "Hg8 mi
2:00 pm82 °FSunny.8 mph48%30.13 "Hg9 mi
1:00 pm79 °FSunny.8 mph58%30.14 "Hg9 mi
12:00 pm77 °FSunny.8 mph57%30.14 "Hg9 mi
11:00 am77 °FSunny.6 mph57%30.15 "Hg9 mi
10:00 am77 °FSunny.7 mph61%30.16 "Hg9 mi
9:00 am75 °FSunny.6 mph69%30.16 "Hg9 mi
8:00 am73 °FSunny.No wind69%30.15 "Hg9 mi
7:00 am68 °FSunny.2 mph83%30.14 "Hg9 mi
Weather by CustomWeather, © 2020

See weather overview